Location: Dal�� Lhota
(48.7500°N, 14.0167°E)
Time: 23:01:52
(UTC+00:00)

Okean 1-7 Rocket - Pass Details

Date: 24 September 2020
Orbit: 616 x 649 km, 82.5° (Epoch: 25 October)

Event Time Altitude Azimuth Distance (km) Brightness Sun altitude
Rises 19:35:20 0° 348° (NNW) 2,981 7.7 -25.8°
Reaches altitude 10° 19:37:36 10° 347° (NNW) 2,064 6.8 -26.1°
Enters shadow 19:41:50 69° 301° (WNW) 698 3.9 -26.7°
